| time (UTC) | temp F | wind direction | speed MPH | gust MPH | rain 1hr in | rain 24hr in | rain mn in | humidity % | barometer mb |
| 20260504050518 | 49 | 224 | 2.0 | 4.0 | 0.00 | 0.00 | 0.00 | 66 | 1001.4 |
| 20260504045518 | 49 | 224 | 2.0 | 5.0 | 0.00 | 0.00 | 0.00 | 65 | 1001.6 |
| 20260504045017 | 49 | 224 | 2.0 | 5.0 | 0.00 | 0.00 | 0.00 | 65 | 1001.7 |
| 20260504044534 | 49 | 0 | 0.0 | 3.0 | 0.00 | 0.00 | 0.00 | 64 | 1001.9 |
| 20260504044021 | 50 | 0 | 0.0 | 2.0 | 0.00 | 0.00 | 0.00 | 63 | 1001.8 |
| 20260504043517 | 50 | 0 | 0.0 | 3.0 | 0.00 | 0.00 | 0.00 | 63 | 1001.9 |
| 20260504043032 | 50 | 224 | 0.0 | 3.0 | 0.00 | 0.00 | 0.00 | 62 | 1002.0 |
| 20260504042517 | 50 | 224 | 1.0 | 3.0 | 0.00 | 0.00 | 0.00 | 62 | 1002.0 |
| 20260504042018 | 50 | 224 | 1.0 | 3.0 | 0.00 | 0.00 | 0.00 | 62 | 1002.0 |
| 20260504041534 | 50 | 224 | 2.0 | 3.0 | 0.00 | 0.00 | 0.00 | 62 | 1002.2 |
| 20260504041017 | 50 | 224 | 2.0 | 4.0 | 0.00 | 0.00 | 0.00 | 62 | 1002.2 |
| 20260504040515 | 51 | 223 | 2.0 | 4.0 | 0.00 | 0.00 | 0.00 | 61 | 1002.3 |
| 20260504040034 | 51 | 226 | 2.0 | 5.0 | 0.00 | 0.00 | 0.00 | 61 | 1002.4 |
| 20260504035515 | 51 | 225 | 2.0 | 5.0 | 0.00 | 0.00 | 0.00 | 60 | 1002.6 |
| 20260504035015 | 51 | 225 | 3.0 | 5.0 | 0.00 | 0.00 | 0.00 | 59 | 1002.7 |
| 20260504034533 | 51 | 226 | 2.0 | 4.0 | 0.00 | 0.00 | 0.00 | 59 | 1002.8 |
| 20260504034021 | 51 | 226 | 2.0 | 4.0 | 0.00 | 0.00 | 0.00 | 58 | 1002.8 |
| 20260504033514 | 51 | 224 | 2.0 | 4.0 | 0.00 | 0.00 | 0.00 | 57 | 1003.0 |
| 20260504033038 | 52 | 224 | 2.0 | 4.0 | 0.00 | 0.00 | 0.00 | 56 | 1003.0 |
| 20260504032518 | 52 | 224 | 2.0 | 4.0 | 0.00 | 0.00 | 0.00 | 55 | 1003.1 |
| 20260504032015 | 52 | 224 | 1.0 | 3.0 | 0.00 | 0.00 | 0.00 | 53 | 1003.1 |
| 20260504031534 | 52 | 224 | 1.0 | 3.0 | 0.00 | 0.00 | 0.00 | 53 | 1003.2 |
| 20260504031017 | 53 | 224 | 1.0 | 2.0 | 0.00 | 0.00 | 0.00 | 52 | 1003.2 |
| 20260504030517 | 53 | 0 | 0.0 | 0.0 | 0.00 | 0.00 | 0.00 | 53 | 1003.3 |
| 20260504030034 | 53 | 0 | 0.0 | 0.0 | 0.00 | 0.00 | 0.00 | 52 | 1003.3 |
| 20260504025520 | 54 | 0 | 0.0 | 0.0 | 0.00 | 0.00 | 0.00 | 51 | 1003.4 |
| 20260504025017 | 54 | 0 | 0.0 | 0.0 | 0.00 | 0.00 | 0.00 | 51 | 1003.4 |
| 20260504024535 | 54 | 0 | 0.0 | 0.0 | 0.00 | 0.00 | 0.00 | 50 | 1003.3 |
| 20260504024018 | 55 | 0 | 0.0 | 0.0 | 0.00 | 0.00 | 0.00 | 50 | 1003.3 |
| 20260504023518 | 55 | 0 | 0.0 | 0.0 | 0.00 | 0.00 | 0.00 | 50 | 1003.4 |
| 20260504023035 | 56 | 0 | 0.0 | 0.0 | 0.00 | 0.00 | 0.00 | 48 | 1003.4 |
| 20260504022521 | 56 | 0 | 0.0 | 0.0 | 0.00 | 0.00 | 0.00 | 47 | 1003.4 |
| 20260504022018 | 57 | 0 | 0.0 | 0.0 | 0.00 | 0.00 | 0.00 | 47 | 1003.4 |
| 20260504021535 | 57 | 0 | 0.0 | 0.0 | 0.00 | 0.00 | 0.00 | 45 | 1003.4 |
| 20260504021017 | 58 | 0 | 0.0 | 0.0 | 0.00 | 0.00 | 0.00 | 45 | 1003.4 |
| 20260504020518 | 58 | 0 | 0.0 | 0.0 | 0.00 | 0.00 | 0.00 | 45 | 1003.4 |
| 20260504020034 | 59 | 0 | 0.0 | 0.0 | 0.00 | 0.00 | 0.00 | 44 | 1003.4 |
| 20260504015518 | 59 | 0 | 0.0 | 0.0 | 0.00 | 0.00 | 0.00 | 43 | 1003.3 |
| 20260504015026 | 60 | 0 | 0.0 | 0.0 | 0.00 | 0.00 | 0.00 | 41 | 1003.3 |
| 20260504014545 | 61 | 0 | 0.0 | 0.0 | 0.00 | 0.00 | 0.00 | 41 | 1003.4 |
| 20260504014021 | 61 | 0 | 0.0 | 0.0 | 0.00 | 0.00 | 0.00 | 40 | 1003.4 |
| 20260504013518 | 62 | 0 | 0.0 | 0.0 | 0.00 | 0.00 | 0.00 | 40 | 1003.4 |
| 20260504013041 | 63 | 0 | 0.0 | 0.0 | 0.00 | 0.00 | 0.00 | 36 | 1003.5 |
| 20260504012520 | 63 | 0 | 0.0 | 0.0 | 0.00 | 0.00 | 0.00 | 34 | 1003.5 |
| 20260504012018 | 64 | 0 | 0.0 | 0.0 | 0.00 | 0.00 | 0.00 | 33 | 1003.5 |
| 20260504011536 | 64 | 0 | 0.0 | 0.0 | 0.00 | 0.00 | 0.00 | 33 | 1003.5 |
| 20260504011018 | 65 | 0 | 0.0 | 0.0 | 0.00 | 0.00 | 0.00 | 32 | 1003.6 |
| 20260504010522 | 65 | 0 | 0.0 | 0.0 | 0.00 | 0.00 | 0.00 | 31 | 1003.6 |
| 20260504010035 | 66 | 0 | 0.0 | 0.0 | 0.00 | 0.00 | 0.00 | 30 | 1003.7 |
| 20260504005518 | 66 | 0 | 0.0 | 0.0 | 0.00 | 0.00 | 0.00 | 30 | 1003.7 |
| 20260504005018 | 66 | 0 | 0.0 | 4.0 | 0.00 | 0.00 | 0.00 | 28 | 1003.7 |
| 20260504004532 | 66 | 0 | 0.0 | 7.0 | 0.00 | 0.00 | 0.00 | 28 | 1003.7 |
| 20260504004019 | 67 | 242 | 1.0 | 7.0 | 0.00 | 0.00 | 0.00 | 29 | 1003.7 |
| 20260504003519 | 67 | 236 | 2.0 | 7.0 | 0.00 | 0.00 | 0.00 | 28 | 1003.7 |
| 20260504003031 | 67 | 0 | 2.0 | 4.0 | 0.00 | 0.00 | 0.00 | 27 | 1003.7 |
| 20260504002517 | 67 | 240 | 1.0 | 5.0 | 0.00 | 0.00 | 0.00 | 26 | 1003.7 |
| 20260504002017 | 68 | 240 | 3.0 | 12.0 | 0.00 | 0.00 | 0.00 | 26 | 1003.7 |
| 20260504001546 | 68 | 236 | 3.0 | 12.0 | 0.00 | 0.00 | 0.00 | 26 | 1003.8 |
| 20260504001017 | 68 | 215 | 5.0 | 12.0 | 0.00 | 0.00 | 0.00 | 26 | 1003.8 |
| 20260504000517 | 69 | 295 | 3.0 | 8.0 | 0.00 | 0.00 | 0.00 | 25 | 1003.8 |
| 20260504000043 | 69 | 247 | 2.0 | 8.0 | 0.00 | 0.00 | 0.00 | 24 | 1003.7 |
| 20260503235519 | 69 | 264 | 3.0 | 11.0 | 0.00 | 0.00 | 0.00 | 24 | 1003.8 |
| 20260503235017 | 69 | 279 | 2.0 | 12.0 | 0.00 | 0.00 | 0.00 | 25 | 1003.8 |
| 20260503234535 | 69 | 244 | 5.0 | 12.0 | 0.00 | 0.00 | 0.00 | 24 | 1003.7 |
| 20260503234018 | 69 | 260 | 3.0 | 15.0 | 0.00 | 0.00 | 0.00 | 23 | 1003.7 |
| 20260503233517 | 70 | 242 | 5.0 | 15.0 | 0.00 | 0.00 | 0.00 | 25 | 1003.7 |
| 20260503233036 | 70 | 279 | 4.0 | 14.0 | 0.00 | 0.00 | 0.00 | 24 | 1003.8 |
| 20260503232517 | 70 | 279 | 7.0 | 14.0 | 0.00 | 0.00 | 0.00 | 23 | 1003.8 |
| 20260503232017 | 70 | 306 | 6.0 | 13.0 | 0.00 | 0.00 | 0.00 | 23 | 1003.8 |
| 20260503231541 | 70 | 282 | 4.0 | 18.0 | 0.00 | 0.00 | 0.00 | 22 | 1003.9 |
| 20260503231018 | 70 | 235 | 7.0 | 18.0 | 0.00 | 0.00 | 0.00 | 23 | 1004.0 |
| 20260503230518 | 70 | 342 | 3.0 | 11.0 | 0.00 | 0.00 | 0.00 | 23 | 1004.1 |
| 20260503230037 | 70 | 258 | 7.0 | 14.0 | 0.00 | 0.00 | 0.00 | 23 | 1004.0 |
| 20260503225520 | 70 | 0 | 6.0 | 14.0 | 0.00 | 0.00 | 0.00 | 22 | 1004.2 |
| 20260503225017 | 70 | 274 | 3.0 | 14.0 | 0.00 | 0.00 | 0.00 | 24 | 1004.2 |
| 20260503224540 | 70 | 359 | 7.0 | 14.0 | 0.00 | 0.00 | 0.00 | 23 | 1004.1 |
| 20260503224018 | 70 | 269 | 3.0 | 13.0 | 0.00 | 0.00 | 0.00 | 24 | 1004.2 |
| 20260503223519 | 70 | 334 | 3.0 | 9.0 | 0.00 | 0.00 | 0.00 | 25 | 1004.1 |
| 20260503223036 | 70 | 237 | 0.0 | 11.0 | 0.00 | 0.00 | 0.00 | 26 | 1004.2 |
| 20260503222517 | 70 | 269 | 3.0 | 11.0 | 0.00 | 0.00 | 0.00 | 23 | 1004.2 |
| 20260503222017 | 70 | 258 | 4.0 | 10.0 | 0.00 | 0.00 | 0.00 | 25 | 1004.3 |
| 20260503221544 | 70 | 21 | 5.0 | 11.0 | 0.00 | 0.00 | 0.00 | 25 | 1004.3 |
| 20260503221018 | 71 | 32 | 4.0 | 11.0 | 0.00 | 0.00 | 0.00 | 24 | 1004.3 |
| 20260503220518 | 71 | 288 | 4.0 | 15.0 | 0.00 | 0.00 | 0.00 | 26 | 1004.4 |
| 20260503220032 | 71 | 224 | 5.0 | 16.0 | 0.00 | 0.00 | 0.00 | 22 | 1004.3 |
| 20260503215518 | 71 | 286 | 5.0 | 19.0 | 0.00 | 0.00 | 0.00 | 23 | 1004.4 |
| 20260503215018 | 71 | 342 | 6.0 | 19.0 | 0.00 | 0.00 | 0.00 | 25 | 1004.4 |
| 20260503214537 | 71 | 251 | 7.0 | 19.0 | 0.00 | 0.00 | 0.00 | 22 | 1004.4 |
| 20260503214017 | 71 | 327 | 3.0 | 15.0 | 0.00 | 0.00 | 0.00 | 24 | 1004.4 |
| 20260503213517 | 71 | 232 | 7.0 | 16.0 | 0.00 | 0.00 | 0.00 | 26 | 1004.3 |
| 20260503213037 | 71 | 227 | 5.0 | 16.0 | 0.00 | 0.00 | 0.00 | 27 | 1004.4 |
| 20260503212521 | 71 | 271 | 5.0 | 16.0 | 0.00 | 0.00 | 0.00 | 28 | 1004.5 |
| 20260503212018 | 71 | 27 | 5.0 | 17.0 | 0.00 | 0.00 | 0.00 | 27 | 1004.3 |
| 20260503211533 | 71 | 253 | 1.0 | 17.0 | 0.00 | 0.00 | 0.00 | 30 | 1004.3 |
| 20260503211020 | 71 | 278 | 9.0 | 17.0 | 0.00 | 0.00 | 0.00 | 26 | 1004.5 |
| 20260503210517 | 71 | 307 | 4.0 | 12.0 | 0.00 | 0.00 | 0.00 | 27 | 1004.4 |
| 20260503210044 | 70 | 301 | 5.0 | 12.0 | 0.00 | 0.00 | 0.00 | 28 | 1004.4 |
| 20260503205519 | 70 | 307 | 2.0 | 13.0 | 0.00 | 0.00 | 0.00 | 29 | 1004.4 |
| 20260503205018 | 70 | 280 | 5.0 | 13.0 | 0.00 | 0.00 | 0.00 | 27 | 1004.4 |
| 20260503204541 | 70 | 359 | 4.0 | 13.0 | 0.00 | 0.00 | 0.00 | 30 | 1004.5 |
| 20260503204020 | 70 | 280 | 4.0 | 18.0 | 0.00 | 0.00 | 0.00 | 27 | 1004.6 |
| 20260503203519 | 70 | 350 | 7.0 | 18.0 | 0.00 | 0.00 | 0.00 | 30 | 1004.6 |
| 20260503203038 | 70 | 288 | 3.0 | 15.0 | 0.00 | 0.00 | 0.00 | 28 | 1004.6 |
| 20260503202519 | 70 | 245 | 7.0 | 15.0 | 0.00 | 0.00 | 0.00 | 28 | 1004.8 |
| 20260503202017 | 70 | 267 | 5.0 | 12.0 | 0.00 | 0.00 | 0.00 | 29 | 1004.8 |
| 20260503201536 | 71 | 267 | 4.0 | 15.0 | 0.00 | 0.00 | 0.00 | 35 | 1004.9 |
| 20260503201017 | 71 | 0 | 7.0 | 15.0 | 0.00 | 0.00 | 0.00 | 26 | 1004.7 |
| 20260503200519 | 71 | 300 | 5.0 | 13.0 | 0.00 | 0.00 | 0.00 | 26 | 1004.8 |
| 20260503200043 | 71 | 284 | 6.0 | 15.0 | 0.00 | 0.00 | 0.00 | 26 | 1004.9 |
| 20260503195517 | 71 | 323 | 4.0 | 15.0 | 0.00 | 0.00 | 0.00 | 27 | 1004.9 |
| 20260503195017 | 71 | 290 | 6.0 | 15.0 | 0.00 | 0.00 | 0.00 | 26 | 1005.1 |
| 20260503194535 | 71 | 283 | 6.0 | 13.0 | 0.00 | 0.00 | 0.00 | 26 | 1005.0 |
| 20260503194015 | 71 | 308 | 6.0 | 14.0 | 0.00 | 0.00 | 0.00 | 30 | 1005.2 |
| 20260503193515 | 71 | 342 | 7.0 | 14.0 | 0.00 | 0.00 | 0.00 | 31 | 1005.1 |
| 20260503193035 | 71 | 26 | 7.0 | 15.0 | 0.00 | 0.00 | 0.00 | 34 | 1005.2 |
| 20260503192514 | 71 | 272 | 4.0 | 15.0 | 0.00 | 0.00 | 0.00 | 37 | 1005.2 |
| 20260503192020 | 71 | 313 | 5.0 | 15.0 | 0.00 | 0.00 | 0.00 | 34 | 1005.3 |
| 20260503191532 | 71 | 339 | 5.0 | 15.0 | 0.00 | 0.00 | 0.00 | 34 | 1005.2 |
| 20260503191022 | 71 | 286 | 5.0 | 14.0 | 0.00 | 0.00 | 0.00 | 34 | 1005.1 |
| 20260503190514 | 71 | 286 | 4.0 | 18.0 | 0.00 | 0.00 | 0.00 | 36 | 1005.3 |
| 20260503190043 | 71 | 9 | 6.0 | 18.0 | 0.00 | 0.00 | 0.00 | 30 | 1005.2 |
| 20260503185517 | 71 | 43 | 4.0 | 12.0 | 0.00 | 0.00 | 0.00 | 35 | 1005.3 |
| 20260503185021 | 71 | 331 | 6.0 | 23.0 | 0.00 | 0.00 | 0.00 | 32 | 1005.3 |
| 20260503184536 | 71 | 337 | 12.0 | 23.0 | 0.00 | 0.00 | 0.00 | 29 | 1005.3 |
| 20260503184018 | 71 | 263 | 6.0 | 14.0 | 0.00 | 0.00 | 0.00 | 31 | 1005.4 |
| 20260503183516 | 71 | 340 | 5.0 | 16.0 | 0.00 | 0.00 | 0.00 | 37 | 1005.5 |
| 20260503183032 | 72 | 350 | 5.0 | 16.0 | 0.00 | 0.00 | 0.00 | 34 | 1005.4 |
| 20260503182513 | 71 | 335 | 7.0 | 16.0 | 0.00 | 0.00 | 0.00 | 30 | 1005.3 |
| 20260503182017 | 71 | 326 | 6.0 | 14.0 | 0.00 | 0.00 | 0.00 | 34 | 1005.4 |
| 20260503181534 | 71 | 294 | 7.0 | 14.0 | 0.00 | 0.00 | 0.00 | 36 | 1005.4 |
| 20260503181018 | 71 | 290 | 4.0 | 17.0 | 0.00 | 0.00 | 0.00 | 41 | 1005.6 |
| 20260503180517 | 71 | 318 | 6.0 | 17.0 | 0.00 | 0.00 | 0.00 | 37 | 1005.5 |
| 20260503180034 | 71 | 333 | 6.0 | 13.0 | 0.00 | 0.00 | 0.00 | 37 | 1005.4 |
| 20260503175515 | 71 | 188 | 4.0 | 17.0 | 0.00 | 0.00 | 0.00 | 36 | 1005.5 |
| 20260503175018 | 70 | 0 | 7.0 | 17.0 | 0.00 | 0.00 | 0.00 | 37 | 1005.4 |
| 20260503174533 | 70 | 198 | 4.0 | 17.0 | 0.00 | 0.00 | 0.00 | 39 | 1005.5 |
| 20260503174017 | 70 | 26 | 2.0 | 17.0 | 0.00 | 0.00 | 0.00 | 42 | 1005.7 |
| 20260503173514 | 70 | 7 | 6.0 | 17.0 | 0.00 | 0.00 | 0.00 | 39 | 1005.8 |
| 20260503173049 | 70 | 332 | 5.0 | 19.0 | 0.00 | 0.00 | 0.00 | 42 | 1005.7 |
| 20260503172517 | 70 | 293 | 7.0 | 19.0 | 0.00 | 0.00 | 0.00 | 34 | 1005.7 |
| 20260503172016 | 69 | 285 | 6.0 | 18.0 | 0.00 | 0.00 | 0.00 | 37 | 1005.8 |
| 20260503171608 | 69 | 328 | 3.0 | 13.0 | 0.00 | 0.00 | 0.00 | 37 | 1005.8 |
| 20260503171535 | 69 | 328 | 3.0 | 13.0 | 0.00 | 0.00 | 0.00 | 37 | 1005.8 |
| 20260503171015 | 69 | 350 | 5.0 | 13.0 | 0.00 | 0.00 | 0.00 | 35 | 1005.9 |
| 20260503170518 | 68 | 350 | 6.0 | 15.0 | 0.00 | 0.00 | 0.00 | 35 | 1005.8 |
| 20260503150516 | 64 | 40 | 3.0 | 5.0 | 0.00 | 0.00 | 0.00 | 56 | 1005.5 |
| 20260503131018 | 59 | 219 | 3.0 | 8.0 | 0.00 | 0.00 | 0.00 | 49 | 1005.2 |
| 20260503130518 | 58 | 209 | 3.0 | 8.0 | 0.00 | 0.00 | 0.00 | 50 | 1005.3 |
| 20260503110517 | 53 | 0 | 1.0 | 6.0 | 0.00 | 0.00 | 0.00 | 55 | 1004.5 |
| 20260503081549 | 56 | 219 | 2.0 | 9.0 | 0.00 | 0.00 | 0.00 | 54 | 1005.3 |
| 20260503081017 | 56 | 199 | 3.0 | 9.0 | 0.00 | 0.00 | 0.00 | 53 | 1005.2 |
| 20260503080517 | 56 | 0 | 2.0 | 9.0 | 0.00 | 0.00 | 0.00 | 54 | 1005.3 |
| 20260503072517 | 56 | 145 | 2.0 | 6.0 | 0.00 | 0.00 | 0.00 | 54 | 1006.1 |
| 20260503072020 | 56 | 209 | 3.0 | 6.0 | 0.00 | 0.00 | 0.00 | 54 | 1006.1 |
| 20260503071541 | 56 | 197 | 3.0 | 8.0 | 0.00 | 0.00 | 0.00 | 53 | 1006.2 |
| 20260503071019 | 55 | 251 | 3.0 | 8.0 | 0.00 | 0.00 | 0.00 | 53 | 1006.3 |
| 20260503070517 | 55 | 195 | 3.0 | 10.0 | 0.00 | 0.00 | 0.00 | 53 | 1006.3 |